Time,TemperatureF,DewpointF,PressureIn,WindDirection,WindDirectionDegrees,WindSpeedMPH,WindSpeedGustMPH,Humidity,HourlyPrecipIn,Conditions,Clouds,dailyrainin,SoftwareType,DateUTC
2013-01-17 00:01:00,36.0,35.0,29.46,ESE,112,0.0,6.0,95,0.00,,,0.00,Rainwise IP-100,2013-01-17 05:01:00,
2013-01-17 00:06:00,36.1,35.0,29.45,ESE,112,2.0,7.0,95,0.00,,,0.00,Rainwise IP-100,2013-01-17 05:06:00,
2013-01-17 00:11:00,36.2,35.0,29.45,ESE,112,1.0,9.0,95,0.00,,,0.00,Rainwise IP-100,2013-01-17 05:11:00,
2013-01-17 00:16:00,36.2,35.0,29.45,ESE,112,4.0,8.0,95,0.00,,,0.00,Rainwise IP-100,2013-01-17 05:16:00,
2013-01-17 00:21:00,36.3,35.0,29.45,ESE,112,2.0,9.0,95,0.06,,,0.01,Rainwise IP-100,2013-01-17 05:21:00,
2013-01-17 00:26:00,36.4,35.0,29.45,ESE,112,3.0,9.0,95,0.06,,,0.01,Rainwise IP-100,2013-01-17 05:26:00,
2013-01-17 00:31:00,36.6,36.0,29.45,SE,135,4.0,9.0,95,0.00,,,0.01,Rainwise IP-100,2013-01-17 05:31:00,
2013-01-17 00:36:00,36.6,36.0,29.45,SSE,157,4.0,9.0,95,0.00,,,0.01,Rainwise IP-100,2013-01-17 05:36:00,
2013-01-17 00:41:00,36.7,36.0,29.45,ESE,112,2.0,9.0,95,0.00,,,0.01,Rainwise IP-100,2013-01-17 05:41:00,
2013-01-17 00:46:00,36.7,36.0,29.45,SE,135,5.0,6.0,95,0.06,,,0.02,Rainwise IP-100,2013-01-17 05:46:00,
2013-01-17 00:51:00,36.9,36.0,29.45,SSE,157,1.0,9.0,95,0.06,,,0.02,Rainwise IP-100,2013-01-17 05:51:00,
2013-01-17 00:56:00,37.0,36.0,29.45,ESE,112,2.0,6.0,95,0.06,,,0.03,Rainwise IP-100,2013-01-17 05:56:00,
2013-01-17 01:00:00,37.2,36.0,29.45,SE,135,7.0,7.0,95,0.06,,,0.03,Rainwise IP-100,2013-01-17 06:00:00,
2013-01-17 01:05:00,37.3,36.0,29.44,ESE,112,2.0,7.0,95,0.00,,,0.03,Rainwise IP-100,2013-01-17 06:05:00,
2013-01-17 01:10:00,37.3,36.0,29.44,SW,225,3.0,5.0,95,0.06,,,0.04,Rainwise IP-100,2013-01-17 06:10:00,
2013-01-17 01:15:00,37.4,36.0,29.44,ESE,112,4.0,6.0,95,0.12,,,0.05,Rainwise IP-100,2013-01-17 06:15:00,
2013-01-17 01:20:00,37.6,37.0,29.44,SE,135,3.0,8.0,95,0.06,,,0.05,Rainwise IP-100,2013-01-17 06:20:00,
2013-01-17 01:25:00,37.8,37.0,29.44,SSW,202,2.0,7.0,95,0.00,,,0.05,Rainwise IP-100,2013-01-17 06:25:00,
2013-01-17 01:30:00,37.8,37.0,29.44,SSE,157,2.0,4.0,95,0.00,,,0.05,Rainwise IP-100,2013-01-17 06:30:00,
2013-01-17 01:35:00,37.8,37.0,29.44,SSE,157,2.0,7.0,95,0.00,,,0.05,Rainwise IP-100,2013-01-17 06:35:00,
2013-01-17 01:40:00,38.2,37.0,29.44,WNW,292,7.0,8.0,96,0.00,,,0.05,Rainwise IP-100,2013-01-17 06:40:00,
2013-01-17 01:45:00,38.2,37.0,29.45,WSW,247,4.0,10.0,96,0.00,,,0.05,Rainwise IP-100,2013-01-17 06:45:00,
2013-01-17 01:50:00,37.9,37.0,29.45,SW,225,2.0,6.0,95,0.00,,,0.05,Rainwise IP-100,2013-01-17 06:50:00,
2013-01-17 01:55:00,37.8,37.0,29.45,WSW,247,4.0,7.0,95,0.00,,,0.05,Rainwise IP-100,2013-01-17 06:55:00,
2013-01-17 02:00:00,37.7,37.0,29.45,WSW,247,3.0,10.0,95,0.00,,,0.05,Rainwise IP-100,2013-01-17 07:00:00,
2013-01-17 02:05:00,37.6,37.0,29.45,WSW,247,4.0,7.0,95,0.00,,,0.05,Rainwise IP-100,2013-01-17 07:05:00,
2013-01-17 02:10:00,37.3,36.0,29.45,WSW,247,5.0,9.0,95,0.00,,,0.05,Rainwise IP-100,2013-01-17 07:10:00,
2013-01-17 02:15:00,37.1,36.0,29.45,West,270,5.0,8.0,95,0.00,,,0.05,Rainwise IP-100,2013-01-17 07:15:00,
2013-01-17 02:20:00,36.9,36.0,29.45,WSW,247,3.0,8.0,95,0.00,,,0.05,Rainwise IP-100,2013-01-17 07:20:00,
2013-01-17 02:25:00,36.8,36.0,29.45,WSW,247,4.0,8.0,95,0.00,,,0.05,Rainwise IP-100,2013-01-17 07:25:00,
2013-01-17 02:30:00,36.7,36.0,29.45,WSW,247,4.0,7.0,95,0.00,,,0.05,Rainwise IP-100,2013-01-17 07:30:00,
2013-01-17 02:35:00,36.7,36.0,29.45,WSW,247,4.0,6.0,95,0.00,,,0.05,Rainwise IP-100,2013-01-17 07:35:00,
2013-01-17 02:40:00,36.6,36.0,29.45,WSW,247,4.0,6.0,95,0.00,,,0.05,Rainwise IP-100,2013-01-17 07:40:00,
2013-01-17 02:45:00,36.4,35.0,29.45,WSW,247,3.0,5.0,95,0.00,,,0.05,Rainwise IP-100,2013-01-17 07:45:00,
2013-01-17 02:50:00,36.3,35.0,29.44,WSW,247,2.0,4.0,95,0.00,,,0.05,Rainwise IP-100,2013-01-17 07:50:00,
2013-01-17 02:55:00,35.9,35.0,29.44,WSW,247,3.0,4.0,95,0.00,,,0.05,Rainwise IP-100,2013-01-17 07:55:00,
2013-01-17 03:01:00,35.6,35.0,29.45,WSW,247,7.0,7.0,95,0.00,,,0.05,Rainwise IP-100,2013-01-17 08:01:00,
2013-01-17 03:06:00,35.5,35.0,29.45,West,270,4.0,9.0,95,0.00,,,0.05,Rainwise IP-100,2013-01-17 08:06:00,
2013-01-17 03:11:00,35.1,33.0,29.45,SW,225,4.0,12.0,95,0.00,,,0.05,Rainwise IP-100,2013-01-17 08:11:00,
2013-01-17 03:16:00,34.8,33.0,29.46,WSW,247,7.0,9.0,95,0.00,,,0.05,Rainwise IP-100,2013-01-17 08:16:00,
2013-01-17 03:21:00,34.4,33.0,29.45,WSW,247,4.0,9.0,95,0.00,,,0.05,Rainwise IP-100,2013-01-17 08:21:00,
2013-01-17 03:26:00,34.2,33.0,29.45,WSW,247,6.0,12.0,95,0.00,,,0.05,Rainwise IP-100,2013-01-17 08:26:00,
2013-01-17 03:31:00,33.9,33.0,29.45,West,270,5.0,7.0,95,0.00,,,0.05,Rainwise IP-100,2013-01-17 08:31:00,
2013-01-17 03:36:00,33.9,33.0,29.45,WSW,247,4.0,13.0,95,0.00,,,0.05,Rainwise IP-100,2013-01-17 08:36:00,
2013-01-17 03:41:00,33.6,33.0,29.45,West,270,4.0,7.0,95,0.00,,,0.05,Rainwise IP-100,2013-01-17 08:41:00,
2013-01-17 03:46:00,33.6,33.0,29.45,WSW,247,5.0,9.0,95,0.00,,,0.05,Rainwise IP-100,2013-01-17 08:46:00,
2013-01-17 03:51:00,33.4,32.0,29.45,WSW,247,7.0,7.0,95,0.00,,,0.05,Rainwise IP-100,2013-01-17 08:51:00,
2013-01-17 03:56:00,33.3,32.0,29.45,WSW,247,4.0,8.0,95,0.00,,,0.05,Rainwise IP-100,2013-01-17 08:56:00,
2013-01-17 04:00:00,33.3,32.0,29.45,WSW,247,5.0,7.0,95,0.00,,,0.05,Rainwise IP-100,2013-01-17 09:00:00,
2013-01-17 04:03:00,33.0,32.0,29.45,WSW,247,4.0,7.0,95,0.00,,,0.05,Rainwise IP-100,2013-01-17 09:03:00,
2013-01-17 04:08:00,32.9,32.0,29.45,WSW,247,4.0,6.0,95,0.00,,,0.05,Rainwise IP-100,2013-01-17 09:08:00,
2013-01-17 04:13:00,32.7,32.0,29.45,WSW,247,6.0,6.0,95,0.00,,,0.05,Rainwise IP-100,2013-01-17 09:13:00,
2013-01-17 04:18:00,32.5,32.0,29.44,West,270,4.0,9.0,95,0.00,,,0.05,Rainwise IP-100,2013-01-17 09:18:00,
2013-01-17 04:23:00,32.3,31.0,29.44,WSW,247,5.0,11.0,95,0.00,,,0.05,Rainwise IP-100,2013-01-17 09:23:00,
2013-01-17 04:28:00,32.1,31.0,29.44,WSW,247,4.0,9.0,95,0.00,,,0.05,Rainwise IP-100,2013-01-17 09:28:00,
2013-01-17 04:33:00,31.9,31.0,29.43,WSW,247,3.0,6.0,95,0.00,,,0.05,Rainwise IP-100,2013-01-17 09:33:00,
2013-01-17 04:38:00,31.9,31.0,29.43,WSW,247,4.0,7.0,95,0.00,,,0.05,Rainwise IP-100,2013-01-17 09:38:00,
2013-01-17 04:43:00,32.0,31.0,29.43,West,270,2.0,6.0,95,0.00,,,0.05,Rainwise IP-100,2013-01-17 09:43:00,
2013-01-17 04:48:00,32.1,31.0,29.44,WSW,247,4.0,7.0,95,0.00,,,0.05,Rainwise IP-100,2013-01-17 09:48:00,
2013-01-17 04:53:00,32.1,31.0,29.44,WSW,247,4.0,6.0,95,0.00,,,0.05,Rainwise IP-100,2013-01-17 09:53:00,
2013-01-17 04:58:00,32.2,31.0,29.44,WSW,247,4.0,7.0,95,0.00,,,0.05,Rainwise IP-100,2013-01-17 09:58:00,
2013-01-17 05:03:00,32.1,31.0,29.43,WSW,247,4.0,7.0,95,0.00,,,0.05,Rainwise IP-100,2013-01-17 10:03:00,
2013-01-17 05:08:00,31.9,31.0,29.43,SW,225,1.0,9.0,95,0.00,,,0.05,Rainwise IP-100,2013-01-17 10:08:00,
2013-01-17 05:13:00,31.9,31.0,29.43,WSW,247,2.0,6.0,95,0.00,,,0.05,Rainwise IP-100,2013-01-17 10:13:00,
2013-01-17 05:18:00,31.8,31.0,29.43,WSW,247,4.0,5.0,95,0.00,,,0.05,Rainwise IP-100,2013-01-17 10:18:00,
2013-01-17 05:23:00,31.8,31.0,29.44,SW,225,1.0,4.0,95,0.00,,,0.05,Rainwise IP-100,2013-01-17 10:23:00,
2013-01-17 05:28:00,31.8,31.0,29.44,WSW,247,2.0,5.0,95,0.00,,,0.05,Rainwise IP-100,2013-01-17 10:28:00,
2013-01-17 05:33:00,31.6,31.0,29.44,WSW,247,4.0,5.0,95,0.00,,,0.05,Rainwise IP-100,2013-01-17 10:33:00,
2013-01-17 05:38:00,31.4,29.0,29.43,SW,225,2.0,6.0,95,0.00,,,0.05,Rainwise IP-100,2013-01-17 10:38:00,
2013-01-17 05:43:00,31.1,29.0,29.43,West,270,2.0,4.0,95,0.00,,,0.05,Rainwise IP-100,2013-01-17 10:43:00,
2013-01-17 05:48:00,30.9,29.0,29.43,WSW,247,2.0,6.0,94,0.00,,,0.05,Rainwise IP-100,2013-01-17 10:48:00,
2013-01-17 05:53:00,30.9,29.0,29.43,West,270,3.0,5.0,94,0.00,,,0.05,Rainwise IP-100,2013-01-17 10:53:00,
2013-01-17 05:58:00,30.9,29.0,29.43,West,270,3.0,7.0,94,0.00,,,0.05,Rainwise IP-100,2013-01-17 10:58:00,
2013-01-17 06:03:00,30.9,29.0,29.43,WSW,247,3.0,5.0,94,0.00,,,0.05,Rainwise IP-100,2013-01-17 11:03:00,
2013-01-17 06:08:00,30.9,29.0,29.44,WSW,247,4.0,5.0,94,0.00,,,0.05,Rainwise IP-100,2013-01-17 11:08:00,
2013-01-17 06:13:00,30.9,29.0,29.43,WSW,247,4.0,6.0,94,0.00,,,0.05,Rainwise IP-100,2013-01-17 11:13:00,
2013-01-17 06:18:00,30.9,29.0,29.44,WSW,247,2.0,6.0,94,0.00,,,0.05,Rainwise IP-100,2013-01-17 11:18:00,
2013-01-17 06:23:00,30.9,29.0,29.45,WSW,247,2.0,6.0,94,0.00,,,0.05,Rainwise IP-100,2013-01-17 11:23:00,
2013-01-17 06:28:00,30.9,29.0,29.45,West,270,2.0,4.0,94,0.00,,,0.05,Rainwise IP-100,2013-01-17 11:28:00,
2013-01-17 06:33:00,30.8,29.0,29.45,WSW,247,2.0,4.0,94,0.00,,,0.05,Rainwise IP-100,2013-01-17 11:33:00,
2013-01-17 06:38:00,30.7,29.0,29.45,WSW,247,2.0,4.0,94,0.00,,,0.05,Rainwise IP-100,2013-01-17 11:38:00,
2013-01-17 06:43:00,30.6,29.0,29.45,WSW,247,2.0,2.0,94,0.00,,,0.05,Rainwise IP-100,2013-01-17 11:43:00,
2013-01-17 06:48:00,30.3,29.0,29.45,WSW,247,0.0,2.0,94,0.00,,,0.05,Rainwise IP-100,2013-01-17 11:48:00,
2013-01-17 06:53:00,29.9,29.0,29.45,WSW,247,0.0,2.0,94,0.00,,,0.05,Rainwise IP-100,2013-01-17 11:53:00,
2013-01-17 06:58:00,29.7,29.0,29.45,WSW,247,2.0,2.0,94,0.00,,,0.05,Rainwise IP-100,2013-01-17 11:58:00,
2013-01-17 07:03:00,29.9,29.0,29.45,WSW,247,2.0,2.0,94,0.00,,,0.05,Rainwise IP-100,2013-01-17 12:03:00,
2013-01-17 07:08:00,29.9,29.0,29.45,WSW,247,0.0,2.0,94,0.00,,,0.05,Rainwise IP-100,2013-01-17 12:08:00,
2013-01-17 07:13:00,29.9,29.0,29.45,WSW,247,0.0,2.0,94,0.00,,,0.05,Rainwise IP-100,2013-01-17 12:13:00,
2013-01-17 07:18:00,29.8,29.0,29.45,WSW,247,0.0,0.0,94,0.00,,,0.05,Rainwise IP-100,2013-01-17 12:18:00,
2013-01-17 07:23:00,29.9,29.0,29.46,SSW,202,2.0,2.0,94,0.00,,,0.05,Rainwise IP-100,2013-01-17 12:23:00,
2013-01-17 07:28:00,30.2,29.0,29.46,SW,225,1.0,2.0,94,0.00,,,0.05,Rainwise IP-100,2013-01-17 12:28:00,
2013-01-17 07:33:00,30.3,29.0,29.46,SW,225,2.0,2.0,94,0.00,,,0.05,Rainwise IP-100,2013-01-17 12:33:00,
2013-01-17 07:38:00,30.5,29.0,29.47,WSW,247,2.0,5.0,94,0.00,,,0.05,Rainwise IP-100,2013-01-17 12:38:00,
2013-01-17 07:43:00,30.7,29.0,29.47,WSW,247,2.0,4.0,94,0.00,,,0.05,Rainwise IP-100,2013-01-17 12:43:00,
2013-01-17 07:48:00,30.9,29.0,29.47,SW,225,2.0,2.0,94,0.00,,,0.05,Rainwise IP-100,2013-01-17 12:48:00,
2013-01-17 07:53:00,30.9,29.0,29.48,SW,225,2.0,2.0,94,0.00,,,0.05,Rainwise IP-100,2013-01-17 12:53:00,
2013-01-17 07:58:00,31.0,29.0,29.48,WSW,247,1.0,2.0,95,0.00,,,0.05,Rainwise IP-100,2013-01-17 12:58:00,
2013-01-17 08:03:00,31.3,29.0,29.48,SW,225,2.0,6.0,95,0.00,,,0.05,Rainwise IP-100,2013-01-17 13:03:00,
2013-01-17 08:08:00,31.4,29.0,29.49,SSW,202,1.0,5.0,95,0.00,,,0.05,Rainwise IP-100,2013-01-17 13:08:00,
2013-01-17 08:13:00,31.5,31.0,29.49,South,180,1.0,3.0,95,0.00,,,0.05,Rainwise IP-100,2013-01-17 13:13:00,
2013-01-17 08:18:00,31.6,31.0,29.49,WSW,247,1.0,4.0,95,0.00,,,0.05,Rainwise IP-100,2013-01-17 13:18:00,
2013-01-17 08:23:00,31.8,31.0,29.49,SSW,202,0.0,4.0,95,0.00,,,0.05,Rainwise IP-100,2013-01-17 13:23:00,
2013-01-17 08:28:00,31.9,31.0,29.49,SSW,202,2.0,6.0,95,0.00,,,0.05,Rainwise IP-100,2013-01-17 13:28:00,
2013-01-17 08:33:00,32.3,31.0,29.50,SW,225,2.0,3.0,95,0.00,,,0.05,Rainwise IP-100,2013-01-17 13:33:00,
2013-01-17 08:38:00,32.5,32.0,29.50,WSW,247,2.0,5.0,95,0.00,,,0.05,Rainwise IP-100,2013-01-17 13:38:00,
2013-01-17 08:43:00,32.7,32.0,29.51,SW,225,2.0,2.0,95,0.00,,,0.05,Rainwise IP-100,2013-01-17 13:43:00,
2013-01-17 08:48:00,32.9,32.0,29.51,SSW,202,1.0,3.0,95,0.00,,,0.05,Rainwise IP-100,2013-01-17 13:48:00,
2013-01-17 08:53:00,33.4,32.0,29.51,SSW,202,2.0,3.0,95,0.00,,,0.05,Rainwise IP-100,2013-01-17 13:53:00,
2013-01-17 08:58:00,33.9,33.0,29.52,SW,225,1.0,4.0,95,0.00,,,0.05,Rainwise IP-100,2013-01-17 13:58:00,
2013-01-17 09:03:00,34.3,33.0,29.53,SW,225,2.0,2.0,95,0.00,,,0.05,Rainwise IP-100,2013-01-17 14:03:00,
2013-01-17 09:08:00,34.7,33.0,29.53,WSW,247,2.0,5.0,95,0.00,,,0.05,Rainwise IP-100,2013-01-17 14:08:00,
2013-01-17 09:13:00,34.8,33.0,29.53,WSW,247,2.0,4.0,95,0.00,,,0.05,Rainwise IP-100,2013-01-17 14:13:00,
2013-01-17 09:18:00,34.9,33.0,29.54,WSW,247,4.0,4.0,95,0.00,,,0.05,Rainwise IP-100,2013-01-17 14:18:00,
2013-01-17 09:23:00,35.1,33.0,29.54,WSW,247,2.0,6.0,95,0.00,,,0.05,Rainwise IP-100,2013-01-17 14:23:00,
2013-01-17 09:28:00,35.2,33.0,29.54,West,270,4.0,6.0,94,0.00,,,0.05,Rainwise IP-100,2013-01-17 14:28:00,
2013-01-17 09:33:00,35.2,33.0,29.55,WSW,247,4.0,6.0,93,0.00,,,0.05,Rainwise IP-100,2013-01-17 14:33:00,
2013-01-17 09:38:00,35.4,33.0,29.55,WSW,247,6.0,7.0,93,0.00,,,0.05,Rainwise IP-100,2013-01-17 14:38:00,
2013-01-17 09:43:00,35.6,33.0,29.55,West,270,4.0,8.0,91,0.00,,,0.05,Rainwise IP-100,2013-01-17 14:43:00,
2013-01-17 09:48:00,35.8,33.0,29.55,WSW,247,4.0,9.0,89,0.00,,,0.05,Rainwise IP-100,2013-01-17 14:48:00,
2013-01-17 09:53:00,35.9,33.0,29.55,West,270,2.0,10.0,89,0.00,,,0.05,Rainwise IP-100,2013-01-17 14:53:00,
2013-01-17 09:58:00,36.1,32.0,29.55,West,270,3.0,8.0,87,0.00,,,0.05,Rainwise IP-100,2013-01-17 14:58:00,
2013-01-17 10:03:00,36.3,33.0,29.55,SSW,202,5.0,6.0,89,0.00,,,0.05,Rainwise IP-100,2013-01-17 15:03:00,
2013-01-17 10:08:00,36.6,33.0,29.55,WSW,247,3.0,5.0,88,0.00,,,0.05,Rainwise IP-100,2013-01-17 15:08:00,
2013-01-17 10:13:00,36.7,33.0,29.55,WSW,247,4.0,6.0,86,0.00,,,0.05,Rainwise IP-100,2013-01-17 15:13:00,
2013-01-17 10:18:00,36.9,33.0,29.55,WSW,247,2.0,7.0,87,0.00,,,0.05,Rainwise IP-100,2013-01-17 15:18:00,
2013-01-17 10:23:00,37.3,33.0,29.55,WSW,247,2.0,6.0,87,0.00,,,0.05,Rainwise IP-100,2013-01-17 15:23:00,
2013-01-17 10:28:00,37.4,33.0,29.56,WSW,247,2.0,8.0,86,0.00,,,0.05,Rainwise IP-100,2013-01-17 15:28:00,
2013-01-17 10:33:00,37.5,33.0,29.56,West,270,1.0,6.0,83,0.00,,,0.05,Rainwise IP-100,2013-01-17 15:33:00,
2013-01-17 10:38:00,37.7,33.0,29.56,SW,225,4.0,6.0,83,0.00,,,0.05,Rainwise IP-100,2013-01-17 15:38:00,
2013-01-17 10:43:00,37.8,33.0,29.56,WNW,292,4.0,11.0,82,0.00,,,0.05,Rainwise IP-100,2013-01-17 15:43:00,
2013-01-17 10:48:00,38.0,33.0,29.56,West,270,4.0,10.0,81,0.00,,,0.05,Rainwise IP-100,2013-01-17 15:48:00,
2013-01-17 10:53:00,38.2,32.0,29.56,WSW,247,2.0,8.0,80,0.00,,,0.05,Rainwise IP-100,2013-01-17 15:53:00,
2013-01-17 10:58:00,38.5,33.0,29.56,WSW,247,4.0,6.0,80,0.00,,,0.05,Rainwise IP-100,2013-01-17 15:58:00,
2013-01-17 11:03:00,38.4,32.0,29.55,West,270,4.0,11.0,79,0.06,,,0.06,Rainwise IP-100,2013-01-17 16:03:00,
2013-01-17 11:08:00,38.6,33.0,29.55,SW,225,4.0,7.0,78,0.06,,,0.06,Rainwise IP-100,2013-01-17 16:08:00,
2013-01-17 11:13:00,38.9,33.0,29.55,SSW,202,2.0,6.0,78,0.00,,,0.06,Rainwise IP-100,2013-01-17 16:13:00,
2013-01-17 11:18:00,38.9,33.0,29.55,SSW,202,5.0,6.0,78,0.00,,,0.06,Rainwise IP-100,2013-01-17 16:18:00,
2013-01-17 11:23:00,39.0,33.0,29.55,WSW,247,2.0,8.0,78,0.00,,,0.06,Rainwise IP-100,2013-01-17 16:23:00,
2013-01-17 11:28:00,39.1,33.0,29.55,SW,225,2.0,7.0,78,0.00,,,0.06,Rainwise IP-100,2013-01-17 16:28:00,
2013-01-17 11:33:00,39.2,32.0,29.55,WSW,247,4.0,7.0,76,0.00,,,0.06,Rainwise IP-100,2013-01-17 16:33:00,
2013-01-17 11:38:00,39.3,32.0,29.55,WSW,247,2.0,7.0,75,0.00,,,0.06,Rainwise IP-100,2013-01-17 16:38:00,
2013-01-17 11:43:00,39.4,32.0,29.55,WSW,247,5.0,8.0,75,0.00,,,0.06,Rainwise IP-100,2013-01-17 16:43:00,
2013-01-17 11:48:00,39.3,32.0,29.55,WSW,247,2.0,7.0,76,0.00,,,0.06,Rainwise IP-100,2013-01-17 16:48:00,
2013-01-17 11:53:00,39.2,32.0,29.55,West,270,5.0,7.0,75,0.00,,,0.06,Rainwise IP-100,2013-01-17 16:53:00,
2013-01-17 11:58:00,39.0,32.0,29.55,West,270,4.0,9.0,75,0.00,,,0.06,Rainwise IP-100,2013-01-17 16:58:00,
2013-01-17 12:03:00,39.1,32.0,29.55,West,270,8.0,11.0,74,0.00,,,0.06,Rainwise IP-100,2013-01-17 17:03:00,
2013-01-17 12:08:00,39.1,32.0,29.55,WSW,247,6.0,9.0,74,0.00,,,0.06,Rainwise IP-100,2013-01-17 17:08:00,
2013-01-17 12:13:00,39.2,32.0,29.55,West,270,8.0,9.0,75,0.00,,,0.06,Rainwise IP-100,2013-01-17 17:13:00,
2013-01-17 12:18:00,39.2,32.0,29.55,WSW,247,5.0,10.0,75,0.00,,,0.06,Rainwise IP-100,2013-01-17 17:18:00,
2013-01-17 12:23:00,39.1,32.0,29.56,West,270,6.0,11.0,74,0.00,,,0.06,Rainwise IP-100,2013-01-17 17:23:00,
2013-01-17 12:28:00,39.2,32.0,29.56,West,270,6.0,11.0,75,0.00,,,0.06,Rainwise IP-100,2013-01-17 17:28:00,
2013-01-17 12:33:00,39.2,32.0,29.56,West,270,4.0,10.0,76,0.00,,,0.06,Rainwise IP-100,2013-01-17 17:33:00,
2013-01-17 12:38:00,39.1,32.0,29.56,West,270,9.0,10.0,77,0.00,,,0.06,Rainwise IP-100,2013-01-17 17:38:00,
2013-01-17 12:43:00,38.9,32.0,29.56,WSW,247,6.0,10.0,76,0.00,,,0.06,Rainwise IP-100,2013-01-17 17:43:00,
2013-01-17 12:48:00,39.0,31.0,29.56,West,270,5.0,11.0,72,0.00,,,0.06,Rainwise IP-100,2013-01-17 17:48:00,
2013-01-17 12:53:00,39.2,31.0,29.56,WSW,247,9.0,11.0,70,0.00,,,0.06,Rainwise IP-100,2013-01-17 17:53:00,
2013-01-17 12:58:00,38.7,31.0,29.57,West,270,9.0,11.0,72,0.00,,,0.06,Rainwise IP-100,2013-01-17 17:58:00,
2013-01-17 13:03:00,38.2,31.0,29.57,WSW,247,6.0,12.0,73,0.00,,,0.06,Rainwise IP-100,2013-01-17 18:03:00,
2013-01-17 13:08:00,38.4,31.0,29.57,WSW,247,6.0,11.0,74,0.00,,,0.06,Rainwise IP-100,2013-01-17 18:08:00,
2013-01-17 13:13:00,38.2,31.0,29.57,West,270,6.0,12.0,74,0.00,,,0.06,Rainwise IP-100,2013-01-17 18:13:00,
2013-01-17 13:18:00,38.3,31.0,29.58,West,270,6.0,10.0,76,0.00,,,0.06,Rainwise IP-100,2013-01-17 18:18:00,
2013-01-17 13:23:00,38.1,31.0,29.58,West,270,5.0,11.0,76,0.00,,,0.06,Rainwise IP-100,2013-01-17 18:23:00,
2013-01-17 13:28:00,37.9,31.0,29.58,West,270,5.0,12.0,75,0.00,,,0.06,Rainwise IP-100,2013-01-17 18:28:00,
2013-01-17 13:33:00,37.7,32.0,29.58,WSW,247,6.0,11.0,78,0.00,,,0.06,Rainwise IP-100,2013-01-17 18:33:00,
2013-01-17 13:38:00,37.5,32.0,29.58,West,270,9.0,11.0,79,0.00,,,0.06,Rainwise IP-100,2013-01-17 18:38:00,
2013-01-17 13:43:00,37.3,31.0,29.59,West,270,6.0,11.0,75,0.00,,,0.06,Rainwise IP-100,2013-01-17 18:43:00,
2013-01-17 13:48:00,37.1,31.0,29.59,WSW,247,9.0,9.0,76,0.00,,,0.06,Rainwise IP-100,2013-01-17 18:48:00,
2013-01-17 13:53:00,36.9,31.0,29.60,WSW,247,4.0,11.0,76,0.00,,,0.06,Rainwise IP-100,2013-01-17 18:53:00,
2013-01-17 13:58:00,36.9,31.0,29.60,SW,225,10.0,11.0,79,0.00,,,0.06,Rainwise IP-100,2013-01-17 18:58:00,
2013-01-17 14:03:00,36.7,31.0,29.60,West,270,4.0,10.0,79,0.00,,,0.06,Rainwise IP-100,2013-01-17 19:03:00,
2013-01-17 14:08:00,36.7,31.0,29.60,WSW,247,7.0,10.0,79,0.00,,,0.06,Rainwise IP-100,2013-01-17 19:08:00,
2013-01-17 14:13:00,36.4,31.0,29.60,WSW,247,7.0,10.0,80,0.00,,,0.06,Rainwise IP-100,2013-01-17 19:13:00,
2013-01-17 14:18:00,36.2,29.0,29.61,WSW,247,6.0,11.0,77,0.00,,,0.06,Rainwise IP-100,2013-01-17 19:18:00,
2013-01-17 14:23:00,36.1,29.0,29.61,WSW,247,7.0,10.0,77,0.00,,,0.06,Rainwise IP-100,2013-01-17 19:23:00,
2013-01-17 14:28:00,35.9,29.0,29.62,WSW,247,8.0,10.0,76,0.00,,,0.06,Rainwise IP-100,2013-01-17 19:28:00,
2013-01-17 14:33:00,35.9,28.0,29.62,WSW,247,7.0,9.0,73,0.00,,,0.06,Rainwise IP-100,2013-01-17 19:33:00,
2013-01-17 14:38:00,35.7,28.0,29.62,WSW,247,7.0,9.0,70,0.00,,,0.06,Rainwise IP-100,2013-01-17 19:38:00,
2013-01-17 14:43:00,35.7,26.0,29.62,WSW,247,7.0,10.0,69,0.00,,,0.06,Rainwise IP-100,2013-01-17 19:43:00,
2013-01-17 14:48:00,35.7,28.0,29.62,WSW,247,4.0,9.0,71,0.00,,,0.06,Rainwise IP-100,2013-01-17 19:48:00,
2013-01-17 14:53:00,35.7,29.0,29.62,WSW,247,3.0,10.0,74,0.00,,,0.06,Rainwise IP-100,2013-01-17 19:53:00,
2013-01-17 14:58:00,35.6,28.0,29.63,WSW,247,7.0,7.0,71,0.00,,,0.06,Rainwise IP-100,2013-01-17 19:58:00,
2013-01-17 15:03:00,35.3,26.0,29.64,WSW,247,7.0,9.0,71,0.00,,,0.06,Rainwise IP-100,2013-01-17 20:03:00,
2013-01-17 15:08:00,34.9,26.0,29.64,West,270,4.0,10.0,68,0.00,,,0.06,Rainwise IP-100,2013-01-17 20:08:00,
2013-01-17 15:13:00,34.8,26.0,29.64,WSW,247,5.0,9.0,69,0.00,,,0.06,Rainwise IP-100,2013-01-17 20:13:00,
2013-01-17 15:18:00,34.6,26.0,29.64,WSW,247,6.0,7.0,68,0.00,,,0.06,Rainwise IP-100,2013-01-17 20:18:00,
2013-01-17 15:23:00,34.3,26.0,29.64,SW,225,4.0,11.0,70,0.00,,,0.06,Rainwise IP-100,2013-01-17 20:23:00,
2013-01-17 15:28:00,34.1,26.0,29.64,WSW,247,7.0,8.0,68,0.00,,,0.06,Rainwise IP-100,2013-01-17 20:28:00,
2013-01-17 15:33:00,33.7,24.0,29.64,SW,225,2.0,11.0,65,0.00,,,0.06,Rainwise IP-100,2013-01-17 20:33:00,
2013-01-17 15:38:00,33.6,26.0,29.64,WSW,247,7.0,11.0,68,0.00,,,0.06,Rainwise IP-100,2013-01-17 20:38:00,
2013-01-17 15:43:00,33.3,24.0,29.64,WSW,247,7.0,9.0,66,0.00,,,0.06,Rainwise IP-100,2013-01-17 20:43:00,
2013-01-17 15:48:00,33.2,24.0,29.64,WNW,292,4.0,11.0,67,0.00,,,0.06,Rainwise IP-100,2013-01-17 20:48:00,
2013-01-17 15:53:00,32.9,23.0,29.65,West,270,4.0,9.0,65,0.00,,,0.06,Rainwise IP-100,2013-01-17 20:53:00,
2013-01-17 15:58:00,32.9,24.0,29.65,WSW,247,4.0,8.0,69,0.00,,,0.06,Rainwise IP-100,2013-01-17 20:58:00,
2013-01-17 16:03:00,32.9,23.0,29.66,SW,225,4.0,10.0,65,0.00,,,0.06,Rainwise IP-100,2013-01-17 21:03:00,
2013-01-17 16:08:00,32.7,23.0,29.66,SW,225,6.0,13.0,64,0.00,,,0.06,Rainwise IP-100,2013-01-17 21:08:00,
2013-01-17 16:13:00,32.6,23.0,29.66,SW,225,2.0,10.0,63,0.00,,,0.06,Rainwise IP-100,2013-01-17 21:13:00,
2013-01-17 16:18:00,32.4,21.0,29.67,West,270,2.0,10.0,63,0.00,,,0.06,Rainwise IP-100,2013-01-17 21:18:00,
2013-01-17 16:23:00,32.3,23.0,29.66,SW,225,5.0,10.0,67,0.00,,,0.06,Rainwise IP-100,2013-01-17 21:23:00,
2013-01-17 16:28:00,32.2,23.0,29.67,West,270,3.0,10.0,65,0.00,,,0.06,Rainwise IP-100,2013-01-17 21:28:00,
2013-01-17 16:33:00,31.9,23.0,29.67,SW,225,4.0,10.0,66,0.00,,,0.06,Rainwise IP-100,2013-01-17 21:33:00,
2013-01-17 16:38:00,31.5,23.0,29.68,WSW,247,6.0,8.0,64,0.00,,,0.06,Rainwise IP-100,2013-01-17 21:38:00,
2013-01-17 16:43:00,31.1,23.0,29.68,WSW,247,4.0,9.0,68,0.00,,,0.06,Rainwise IP-100,2013-01-17 21:43:00,
2013-01-17 16:48:00,30.8,21.0,29.68,WSW,247,2.0,9.0,62,0.00,,,0.06,Rainwise IP-100,2013-01-17 21:48:00,
2013-01-17 16:53:00,30.3,21.0,29.68,WSW,247,5.0,11.0,64,0.00,,,0.06,Rainwise IP-100,2013-01-17 21:53:00,
2013-01-17 16:58:00,29.9,21.0,29.68,WSW,247,6.0,8.0,63,0.00,,,0.06,Rainwise IP-100,2013-01-17 21:58:00,
2013-01-17 17:03:00,29.7,18.0,29.69,WSW,247,4.0,9.0,61,0.00,,,0.06,Rainwise IP-100,2013-01-17 22:03:00,
2013-01-17 17:08:00,29.5,21.0,29.69,WSW,247,7.0,10.0,65,0.00,,,0.06,Rainwise IP-100,2013-01-17 22:08:00,
2013-01-17 17:13:00,29.4,21.0,29.69,SW,225,7.0,9.0,67,0.00,,,0.06,Rainwise IP-100,2013-01-17 22:13:00,
2013-01-17 17:18:00,29.0,16.0,29.69,West,270,7.0,16.0,57,0.00,,,0.06,Rainwise IP-100,2013-01-17 22:18:00,
2013-01-17 17:23:00,28.8,16.0,29.69,WSW,247,4.0,10.0,55,0.00,,,0.06,Rainwise IP-100,2013-01-17 22:23:00,
2013-01-17 17:28:00,28.4,11.0,29.69,WSW,247,9.0,12.0,49,0.00,,,0.06,Rainwise IP-100,2013-01-17 22:28:00,
2013-01-17 17:33:00,28.2,11.0,29.69,WNW,292,7.0,11.0,49,0.00,,,0.06,Rainwise IP-100,2013-01-17 22:33:00,
2013-01-17 17:38:00,28.1,14.0,29.70,WSW,247,7.0,15.0,52,0.00,,,0.06,Rainwise IP-100,2013-01-17 22:38:00,
2013-01-17 17:43:00,27.9,11.0,29.70,WNW,292,5.0,14.0,47,0.00,,,0.06,Rainwise IP-100,2013-01-17 22:43:00,
2013-01-17 17:48:00,27.9,14.0,29.70,NW,315,4.0,10.0,50,0.00,,,0.06,Rainwise IP-100,2013-01-17 22:48:00,
2013-01-17 17:53:00,27.1,14.0,29.71,SE,135,1.0,7.0,55,0.00,,,0.06,Rainwise IP-100,2013-01-17 22:53:00,
2013-01-17 17:58:00,26.4,14.0,29.71,West,270,3.0,9.0,55,0.00,,,0.06,Rainwise IP-100,2013-01-17 22:58:00,
2013-01-17 18:03:00,25.8,14.0,29.72,WSW,247,3.0,11.0,54,0.00,,,0.06,Rainwise IP-100,2013-01-17 23:03:00,
2013-01-17 18:08:00,25.4,11.0,29.72,East,90,2.0,8.0,50,0.00,,,0.06,Rainwise IP-100,2013-01-17 23:08:00,
2013-01-17 18:13:00,24.9,14.0,29.73,WSW,247,2.0,9.0,55,0.00,,,0.06,Rainwise IP-100,2013-01-17 23:13:00,
2013-01-17 18:18:00,24.5,11.0,29.73,West,270,4.0,11.0,48,0.00,,,0.06,Rainwise IP-100,2013-01-17 23:18:00,
2013-01-17 18:23:00,24.4,8.0,29.73,West,270,2.0,9.0,47,0.00,,,0.06,Rainwise IP-100,2013-01-17 23:23:00,
2013-01-17 18:28:00,24.3,8.0,29.74,SW,225,2.0,9.0,48,0.00,,,0.06,Rainwise IP-100,2013-01-17 23:28:00,
2013-01-17 18:33:00,24.1,8.0,29.73,SSW,202,2.0,9.0,49,0.00,,,0.06,Rainwise IP-100,2013-01-17 23:33:00,
2013-01-17 18:38:00,24.0,11.0,29.74,SW,225,4.0,7.0,51,0.00,,,0.06,Rainwise IP-100,2013-01-17 23:38:00,
2013-01-17 18:43:00,23.8,8.0,29.75,WSW,247,2.0,11.0,48,0.00,,,0.06,Rainwise IP-100,2013-01-17 23:43:00,
2013-01-17 18:48:00,23.3,8.0,29.75,NW,315,2.0,12.0,49,0.00,,,0.06,Rainwise IP-100,2013-01-17 23:48:00,
2013-01-17 18:53:00,23.4,8.0,29.75,WSW,247,4.0,7.0,54,0.00,,,0.06,Rainwise IP-100,2013-01-17 23:53:00,
2013-01-17 18:58:00,22.8,8.0,29.76,NNW,337,4.0,11.0,46,0.00,,,0.06,Rainwise IP-100,2013-01-17 23:58:00,
2013-01-17 19:03:00,22.5,8.0,29.77,WNW,292,2.0,9.0,49,0.00,,,0.06,Rainwise IP-100,2013-01-18 00:03:00,
2013-01-17 19:08:00,22.5,8.0,29.76,North,360,2.0,6.0,50,0.00,,,0.06,Rainwise IP-100,2013-01-18 00:08:00,
2013-01-17 19:13:00,22.2,8.0,29.75,NNW,337,2.0,12.0,50,0.00,,,0.06,Rainwise IP-100,2013-01-18 00:13:00,
2013-01-17 19:18:00,21.9,8.0,29.75,NW,315,2.0,12.0,49,0.00,,,0.06,Rainwise IP-100,2013-01-18 00:18:00,
2013-01-17 19:23:00,21.1,4.0,29.75,West,270,5.0,14.0,46,0.00,,,0.06,Rainwise IP-100,2013-01-18 00:23:00,
2013-01-17 19:28:00,20.7,4.0,29.76,West,270,2.0,14.0,48,0.00,,,0.06,Rainwise IP-100,2013-01-18 00:28:00,
2013-01-17 19:33:00,20.3,4.0,29.76,East,90,2.0,12.0,47,0.00,,,0.06,Rainwise IP-100,2013-01-18 00:33:00,
2013-01-17 19:38:00,20.3,8.0,29.77,SSW,202,2.0,16.0,51,0.00,,,0.06,Rainwise IP-100,2013-01-18 00:38:00,
2013-01-17 19:43:00,19.9,4.0,29.78,SSW,202,7.0,12.0,47,0.00,,,0.06,Rainwise IP-100,2013-01-18 00:43:00,
2013-01-17 19:48:00,19.7,4.0,29.78,North,360,2.0,10.0,45,0.00,,,0.06,Rainwise IP-100,2013-01-18 00:48:00,
2013-01-17 19:53:00,19.2,4.0,29.79,WSW,247,3.0,12.0,43,0.00,,,0.06,Rainwise IP-100,2013-01-18 00:53:00,
2013-01-17 19:58:00,19.1,4.0,29.79,SSW,202,3.0,8.0,46,0.00,,,0.06,Rainwise IP-100,2013-01-18 00:58:00,
2013-01-17 20:04:00,19.0,4.0,29.79,NW,315,4.0,7.0,48,0.00,,,0.06,Rainwise IP-100,2013-01-18 01:04:00,
2013-01-17 20:09:00,18.8,4.0,29.78,North,360,6.0,7.0,48,0.00,,,0.06,Rainwise IP-100,2013-01-18 01:09:00,
2013-01-17 20:14:00,18.5,4.0,29.78,NNW,337,6.0,9.0,48,0.00,,,0.06,Rainwise IP-100,2013-01-18 01:14:00,
2013-01-17 20:19:00,18.3,4.0,29.78,South,180,3.0,10.0,48,0.00,,,0.06,Rainwise IP-100,2013-01-18 01:19:00,
2013-01-17 20:24:00,17.9,0.0,29.78,East,90,2.0,11.0,43,0.00,,,0.06,Rainwise IP-100,2013-01-18 01:24:00,
2013-01-17 20:29:00,17.6,0.0,29.78,NNW,337,3.0,9.0,42,0.00,,,0.06,Rainwise IP-100,2013-01-18 01:29:00,
2013-01-17 20:34:00,17.2,0.0,29.80,North,360,0.0,14.0,41,0.00,,,0.06,Rainwise IP-100,2013-01-18 01:34:00,
2013-01-17 20:39:00,17.0,0.0,29.79,North,360,3.0,13.0,42,0.00,,,0.06,Rainwise IP-100,2013-01-18 01:39:00,
2013-01-17 20:44:00,16.7,0.0,29.78,SSE,157,1.0,9.0,39,0.00,,,0.06,Rainwise IP-100,2013-01-18 01:44:00,
2013-01-17 20:49:00,16.4,0.0,29.79,NNW,337,2.0,6.0,40,0.00,,,0.06,Rainwise IP-100,2013-01-18 01:49:00,
2013-01-17 20:54:00,16.2,0.0,29.78,SSE,157,1.0,9.0,41,0.00,,,0.06,Rainwise IP-100,2013-01-18 01:54:00,
2013-01-17 20:59:00,16.3,0.0,29.79,NW,315,0.0,12.0,42,0.00,,,0.06,Rainwise IP-100,2013-01-18 01:59:00,
2013-01-17 21:04:00,16.4,0.0,29.79,West,270,4.0,9.0,44,0.00,,,0.06,Rainwise IP-100,2013-01-18 02:04:00,
2013-01-17 21:09:00,16.2,0.0,29.79,SSW,202,2.0,15.0,42,0.00,,,0.06,Rainwise IP-100,2013-01-18 02:09:00,
2013-01-17 21:14:00,16.2,0.0,29.80,West,270,1.0,6.0,46,0.00,,,0.06,Rainwise IP-100,2013-01-18 02:14:00,
2013-01-17 21:19:00,16.2,0.0,29.80,WNW,292,2.0,7.0,45,0.00,,,0.06,Rainwise IP-100,2013-01-18 02:19:00,
2013-01-17 21:24:00,15.8,0.0,29.79,North,360,0.0,9.0,42,0.00,,,0.06,Rainwise IP-100,2013-01-18 02:24:00,
2013-01-17 21:29:00,15.4,-6.0,29.79,NNW,337,7.0,11.0,38,0.00,,,0.06,Rainwise IP-100,2013-01-18 02:29:00,
2013-01-17 21:34:00,15.3,0.0,29.79,SSW,202,1.0,11.0,40,0.00,,,0.06,Rainwise IP-100,2013-01-18 02:34:00,
2013-01-17 21:39:00,15.3,0.0,29.79,North,360,1.0,9.0,41,0.00,,,0.06,Rainwise IP-100,2013-01-18 02:39:00,
2013-01-17 21:44:00,15.3,0.0,29.79,NNW,337,1.0,9.0,42,0.00,,,0.06,Rainwise IP-100,2013-01-18 02:44:00,
2013-01-17 21:49:00,14.9,-6.0,29.78,NNW,337,2.0,10.0,37,0.00,,,0.06,Rainwise IP-100,2013-01-18 02:49:00,
2013-01-17 21:54:00,14.7,-6.0,29.77,WNW,292,6.0,9.0,34,0.00,,,0.06,Rainwise IP-100,2013-01-18 02:54:00,
2013-01-17 21:59:00,14.6,-6.0,29.76,NNW,337,4.0,9.0,35,0.00,,,0.06,Rainwise IP-100,2013-01-18 02:59:00,
2013-01-17 22:04:00,14.5,-6.0,29.77,East,90,2.0,12.0,36,0.00,,,0.06,Rainwise IP-100,2013-01-18 03:04:00,
2013-01-17 22:09:00,14.8,0.0,29.77,WNW,292,5.0,9.0,39,0.00,,,0.06,Rainwise IP-100,2013-01-18 03:09:00,
2013-01-17 22:14:00,14.5,-6.0,29.77,West,270,2.0,8.0,34,0.00,,,0.06,Rainwise IP-100,2013-01-18 03:14:00,
2013-01-17 22:19:00,14.1,-6.0,29.77,NW,315,5.0,11.0,35,0.00,,,0.06,Rainwise IP-100,2013-01-18 03:19:00,
2013-01-17 22:24:00,14.1,-6.0,29.77,NNW,337,2.0,10.0,40,0.00,,,0.06,Rainwise IP-100,2013-01-18 03:24:00,
2013-01-17 22:29:00,14.1,-6.0,29.78,North,360,1.0,9.0,40,0.00,,,0.06,Rainwise IP-100,2013-01-18 03:29:00,
2013-01-17 22:34:00,13.9,-6.0,29.78,WSW,247,1.0,9.0,42,0.00,,,0.06,Rainwise IP-100,2013-01-18 03:34:00,
2013-01-17 22:39:00,13.8,-6.0,29.77,NW,315,2.0,7.0,41,0.00,,,0.06,Rainwise IP-100,2013-01-18 03:39:00,
2013-01-17 22:44:00,13.6,-6.0,29.78,NW,315,5.0,11.0,42,0.00,,,0.06,Rainwise IP-100,2013-01-18 03:44:00,
2013-01-17 22:49:00,13.3,-6.0,29.77,WNW,292,1.0,11.0,42,0.00,,,0.06,Rainwise IP-100,2013-01-18 03:49:00,
2013-01-17 22:54:00,13.4,0.0,29.77,SW,225,2.0,8.0,44,0.00,,,0.06,Rainwise IP-100,2013-01-18 03:54:00,
2013-01-17 22:59:00,13.4,0.0,29.75,WNW,292,2.0,9.0,47,0.00,,,0.06,Rainwise IP-100,2013-01-18 03:59:00,
2013-01-17 23:04:00,13.4,0.0,29.76,North,360,1.0,10.0,48,0.00,,,0.06,Rainwise IP-100,2013-01-18 04:04:00,
2013-01-17 23:09:00,13.3,0.0,29.76,SE,135,1.0,8.0,48,0.00,,,0.06,Rainwise IP-100,2013-01-18 04:09:00,
2013-01-17 23:14:00,13.3,0.0,29.77,NW,315,3.0,9.0,52,0.00,,,0.06,Rainwise IP-100,2013-01-18 04:14:00,
2013-01-17 23:19:00,13.4,0.0,29.76,ESE,112,2.0,9.0,51,0.00,,,0.06,Rainwise IP-100,2013-01-18 04:19:00,
2013-01-17 23:24:00,13.2,0.0,29.76,North,360,2.0,6.0,49,0.00,,,0.06,Rainwise IP-100,2013-01-18 04:24:00,
2013-01-17 23:29:00,12.8,0.0,29.78,WSW,247,2.0,6.0,45,0.00,,,0.06,Rainwise IP-100,2013-01-18 04:29:00,
2013-01-17 23:34:00,12.5,0.0,29.77,NNW,337,4.0,9.0,47,0.00,,,0.06,Rainwise IP-100,2013-01-18 04:34:00,
2013-01-17 23:39:00,12.5,0.0,29.77,West,270,5.0,7.0,50,0.00,,,0.06,Rainwise IP-100,2013-01-18 04:39:00,
2013-01-17 23:44:00,11.9,0.0,29.77,North,360,4.0,7.0,47,0.00,,,0.06,Rainwise IP-100,2013-01-18 04:44:00,
2013-01-17 23:49:00,11.8,0.0,29.77,NW,315,3.0,9.0,52,0.00,,,0.06,Rainwise IP-100,2013-01-18 04:49:00,
2013-01-17 23:54:00,11.8,0.0,29.77,East,90,4.0,9.0,52,0.00,,,0.06,Rainwise IP-100,2013-01-18 04:54:00,
2013-01-17 23:59:00,11.8,0.0,29.77,West,270,5.0,7.0,53,0.00,,,0.06,Rainwise IP-100,2013-01-18 04:59:00,